Location: Waco, TX
(31.5480°N, 97.1670°W)
Time: 16:21:35
(UTC-06:00)

ISS - Pass Details

Date: 17 November 2018
Orbit: 402 x 409 km, 51.6° (Epoch: 14 November)

Event Time Altitude Azimuth Distance (km) Brightness Sun altitude
Rises 05:27:25 0° 307° (NW) 2,316 - -19.4°
Reaches altitude 10° 05:29:33 10° 300° (WNW) 1,455 - -18.9°
Maximum altitude 05:32:38 40° 229° (SW) 610 - -18.3°
Exits shadow 05:32:54 39° 215° (SW) 620 -3.1 -18.2°
Drops below altitude 10° 05:35:43 10° 158° (SSE) 1,451 -0.6 -17.7°
Sets 05:37:51 0° 151° (SSE) 2,308 0.6 -17.2°
